Theta_e
316 317 317 317 315 315 316 316 317 318 317 317 317 317 317 319 321 324 324 323 322 323 323 324 324 323 323 324 326 328 329 328 328 328 329 330 330 331 333 334 334 334 334 333 334 334 334 333 333 334 334 333 333 333 333 333 333 332 332 331 331 332 332 332 330 330 329 329 328 328 327 327 326 326
316 316 317 316 315 315 316 315 317 318 318 318 317 317 318 318 319 321 323 323 322 322 322 323 323 323 322 323 325 326 327 328 328 328 329 330 331 331 331 333 334 334 334 333 332 333 334 334 334 334 334 333 333 333 333 333 333 333 332 332 331 332 332 332 331 330 330 330 330 329 329 328 327 327
316 316 316 316 316 316 316 316 316 317 318 319 319 319 320 320 320 319 320 322 322 321 322 322 323 322 322 323 324 326 326 327 328 328 328 330 332 331 331 332 333 333 334 334 333 332 333 334 334 334 335 334 333 333 333 334 333 333 333 332 332 332 332 332 332 331 330 331 331 331 331 330 329 328
316 317 317 316 316 316 316 316 316 317 319 319 318 318 318 319 321 320 320 321 321 321 322 322 322 322 322 323 324 325 325 325 326 327 328 329 330 331 331 332 332 333 333 333 334 334 334 334 334 334 334 334 334 333 333 333 333 333 333 333 332 332 332 332 332 332 332 332 332 332 331 331 330 329
315 316 316 316 316 316 315 315 315 317 319 318 316 316 315 317 320 321 321 321 321 321 322 322 322 322 322 323 323 324 325 325 325 326 327 328 330 330 330 331 330 331 332 332 333 334 334 334 334 334 334 334 334 333 333 333 333 333 333 333 333 333 333 333 332 332 332 332 333 333 332 332 331 331
315 314 314 315 316 316 315 315 316 317 318 317 315 315 315 316 318 320 320 321 321 321 321 321 321 321 321 322 323 324 325 325 325 326 327 329 330 330 330 329 329 329 330 331 333 334 334 334 334 334 334 334 334 333 333 333 333 332 332 332 333 333 333 333 333 332 332 332 332 333 332 332 332 331
314 314 314 314 316 316 315 315 316 317 317 316 315 315 315 316 316 318 319 319 319 320 320 319 319 318 319 320 322 324 325 324 324 325 327 329 329 329 329 328 328 328 329 330 331 333 333 334 334 334 334 334 334 334 333 333 333 333 332 332 333 333 333 333 333 333 333 332 332 332 333 332 332 331
314 314 314 315 315 315 315 315 315 316 316 316 315 314 315 316 317 317 318 317 317 318 318 318 317 317 318 319 322 324 323 323 324 325 326 327 327 327 327 327 327 328 328 328 328 329 330 331 332 333 334 334 334 334 333 333 333 333 333 333 333 333 334 333 333 332 333 333 332 333 333 333 333 332
314 315 315 315 315 315 315 315 315 315 316 316 315 314 315 316 317 317 317 316 316 316 317 317 316 316 317 318 321 323 322 322 323 324 324 326 326 326 327 327 327 327 328 327 327 327 328 329 329 330 332 332 332 333 334 333 333 333 333 333 333 334 334 334 333 333 333 333 333 333 333 333 333 332
313 314 314 315 315 315 315 314 314 315 315 315 315 315 315 316 316 316 316 317 316 315 316 316 316 316 317 318 319 321 321 322 323 322 322 323 323 325 326 326 327 327 327 328 328 328 327 327 328 328 329 330 331 331 333 333 334 333 333 334 334 334 334 334 334 333 333 334 334 334 334 333 333 333
312 313 314 314 315 314 314 314 314 315 315 315 315 315 315 316 316 315 315 316 316 316 316 316 316 316 317 317 318 318 320 322 322 322 322 321 321 323 324 325 326 327 327 328 328 329 328 328 327 328 328 329 330 331 332 333 333 333 333 333 333 333 334 334 334 334 334 334 333 333 334 334 334 334
310 313 314 314 314 313 313 313 314 315 315 315 315 315 315 316 316 314 314 315 316 316 316 316 316 316 316 317 317 316 318 321 322 322 322 323 322 321 322 323 323 324 326 327 327 328 329 329 328 328 328 329 330 330 331 331 332 333 333 333 333 333 334 333 333 334 333 333 333 332 332 333 334 333
307 311 313 313 312 313 313 314 315 315 315 315 315 315 316 316 315 313 313 314 315 316 316 316 316 316 316 317 317 316 318 321 322 321 321 322 321 320 320 320 320 321 322 323 324 325 326 327 328 328 328 329 329 329 329 330 331 331 332 333 333 333 333 332 332 332 332 332 332 332 331 331 331 333
307 308 312 313 312 313 314 314 315 315 314 315 315 315 315 315 314 313 312 312 314 315 316 316 316 316 315 316 317 316 317 319 320 320 320 320 320 319 319 319 319 319 318 318 319 321 322 324 325 327 327 327 327 327 328 328 330 330 331 332 333 333 332 331 330 330 329 329 330 331 331 330 330 331
310 308 310 312 312 311 312 312 313 313 313 314 314 314 315 314 313 312 311 311 311 313 315 315 316 316 316 316 317 317 317 318 318 318 319 320 319 319 318 318 318 318 318 317 317 318 320 321 323 325 325 325 325 325 325 326 328 329 329 331 332 331 330 329 328 328 328 328 329 330 331 331 330 330
312 308 307 310 311 311 311 311 312 313 314 315 314 314 314 314 312 311 310 310 309 309 312 314 315 315 316 317 317 317 317 317 318 318 318 318 319 318 318 317 317 317 317 317 317 318 319 320 322 324 324 323 323 323 323 324 325 327 328 329 330 330 329 328 327 327 328 328 329 329 329 330 330 329
313 309 307 309 310 311 311 311 311 312 313 314 314 314 314 314 312 311 310 308 306 305 308 312 313 314 316 316 316 316 316 317 317 317 317 317 317 317 317 317 317 317 317 317 317 319 320 321 322 324 323 322 322 322 322 323 324 325 327 328 328 327 327 327 327 327 327 327 327 327 328 328 328 328
314 310 308 310 311 311 311 311 312 312 312 313 314 314 314 314 312 311 310 307 305 304 306 310 311 312 314 315 315 316 316 317 317 317 317 317 317 317 316 317 317 317 317 318 319 319 321 322 323 323 322 321 321 321 321 321 322 323 324 324 324 324 323 324 324 325 326 326 326 326 326 326 326 325
315 311 309 310 311 311 311 311 311 312 312 313 314 315 315 314 313 311 309 308 306 305 306 309 311 312 313 314 315 316 317 317 317 317 317 317 316 316 316 316 317 317 317 319 321 321 322 323 323 322 321 320 319 319 319 319 319 320 320 320 320 321 320 321 321 322 324 325 325 325 325 324 324 324
316 312 309 310 311 311 311 312 312 312 313 313 313 315 315 314 312 311 309 308 306 304 306 309 311 312 313 315 316 317 317 317 316 316 317 316 316 316 316 316 316 316 316 317 320 322 323 323 322 320 319 317 317 316 317 317 317 317 318 318 318 318 318 319 319 320 321 321 322 323 323 323 323 322
317 314 310 309 311 311 311 312 312 312 314 314 314 315 315 313 311 310 309 308 305 304 306 307 309 310 311 313 314 316 316 316 315 314 315 315 314 315 315 315 316 316 316 315 317 320 321 321 321 319 316 315 315 314 315 315 315 315 316 317 317 317 317 317 317 317 317 317 318 319 319 319 319 319
317 316 312 309 310 311 311 311 311 312 313 314 314 315 314 312 310 309 309 307 305 305 306 306 307 308 309 310 311 312 313 314 313 312 312 312 313 314 315 315 315 316 316 316 317 319 320 320 320 317 314 313 313 313 313 313 313 315 316 316 316 316 315 315 315 315 315 315 316 316 316 317 317 317
317 317 314 311 310 310 311 311 311 311 312 313 315 315 313 311 309 309 308 306 305 305 306 306 306 306 307 308 309 310 311 312 312 312 312 311 311 313 314 315 315 315 316 317 318 319 319 319 319 317 315 314 313 312 312 311 312 313 314 314 314 314 313 313 313 313 314 314 314 314 314 315 315 316
318 317 316 313 310 310 311 311 311 311 312 312 314 314 312 310 309 308 307 307 306 306 306 306 306 307 308 310 311 311 310 310 310 311 311 310 310 311 313 315 316 315 315 317 317 318 318 318 318 318 316 315 313 311 310 310 310 311 311 311 311 311 311 311 311 311 312 312 312 312 312 312 313 313
318 317 317 316 312 310 310 311 311 311 312 312 312 312 311 309 309 308 307 307 307 306 306 307 307 307 309 311 313 312 312 311 311 312 312 311 310 311 313 315 316 315 315 316 317 317 317 317 318 317 315 314 313 310 309 308 309 310 310 309 309 309 309 309 308 308 308 309 309 310 310 310 311 311
318 318 318 318 315 311 310 310 311 311 312 312 311 311 310 309 308 308 307 307 307 307 307 307 307 308 309 311 313 314 314 314 314 315 315 315 314 315 316 316 316 315 315 316 316 316 315 316 317 317 315 314 312 310 309 308 308 309 309 308 308 308 307 307 306 306 306 306 307 308 308 308 308 308
318 318 318 318 317 314 311 310 310 311 312 312 311 311 309 308 308 308 308 307 307 307 307 307 307 308 308 310 312 314 315 315 315 316 316 316 317 317 317 317 316 316 315 316 316 315 314 314 315 316 316 314 311 309 308 308 308 308 307 307 306 306 305 305 304 304 304 304 305 306 306 306 306 306
318 318 318 318 318 316 313 310 309 310 311 311 311 310 309 307 307 307 307 307 307 307 308 307 308 308 308 308 311 314 315 315 315 316 315 316 316 317 317 316 316 315 315 315 315 314 313 313 313 315 316 314 312 311 309 308 308 308 306 305 305 304 304 303 302 302 302 302 302 302 303 303 303 303
319 319 319 318 317 317 315 311 309 309 310 310 310 309 308 307 307 307 306 306 306 307 308 308 308 309 309 308 310 313 314 314 315 315 315 315 316 316 316 316 316 316 315 314 313 313 312 313 313 314 315 315 314 313 311 309 307 306 306 305 304 304 303 302 301 300 300 299 300 300 300 301 301 301
318 318 318 317 316 316 315 311 309 308 308 308 309 309 308 307 306 306 306 306 306 307 308 308 309 310 309 308 310 313 314 314 314 315 315 314 315 315 316 316 316 315 315 313 313 312 312 313 313 314 315 315 315 314 312 310 307 305 305 305 304 303 302 301 300 299 298 298 298 298 298 298 299 300
319 318 317 315 314 314 313 311 309 308 308 308 308 307 307 306 305 305 306 307 308 308 309 309 310 310 309 309 309 312 314 314 313 313 314 314 314 314 315 315 315 315 314 313 313 313 312 313 313 313 314 315 313 312 312 310 308 306 305 304 304 303 302 301 299 298 298 298 297 297 297 297 297 298
319 318 315 313 313 312 311 310 309 308 308 307 307 306 306 306 306 307 308 309 309 310 310 310 310 310 309 309 309 311 313 314 313 313 313 313 313 314 314 314 314 314 314 313 313 312 312 312 313 313 313 314 313 312 310 309 308 307 305 304 304 303 301 300 299 298 298 298 297 297 297 297 296 297
318 316 313 312 311 311 310 310 309 309 308 307 307 307 307 308 308 310 311 311 311 312 311 310 311 310 310 309 309 311 313 314 313 313 313 313 313 314 314 314 313 313 313 312 312 311 311 311 312 311 312 314 313 312 310 308 306 305 305 304 303 302 301 300 299 298 298 298 298 297 297 297 297 297
316 314 312 312 311 311 310 310 309 310 309 308 308 309 309 310 311 312 313 312 312 311 311 311 311 311 310 309 309 310 312 313 313 313 313 313 313 313 313 313 313 313 312 311 311 311 310 310 310 310 311 311 311 310 309 308 306 304 304 304 303 301 300 300 299 299 299 299 298 298 297 297 296 297
315 314 312 311 311 311 310 310 310 310 310 309 309 310 311 311 312 313 313 312 312 312 311 311 310 311 310 309 309 310 311 313 313 313 312 312 313 313 313 313 313 313 312 311 310 310 309 309 310 309 309 308 308 307 307 307 306 305 304 304 302 301 300 300 300 300 299 299 298 298 297 296 296 296
315 314 312 311 312 311 310 310 311 311 310 310 310 311 311 312 313 313 312 312 312 312 311 311 310 311 310 310 310 309 310 312 313 312 311 312 313 313 313 313 313 312 312 311 310 310 309 309 309 309 307 307 307 307 306 306 306 306 305 303 302 301 301 300 300 300 299 299 298 297 296 296 295 295
314 313 312 312 313 312 311 312 312 311 311 311 311 311 311 312 312 312 312 312 312 312 311 311 310 310 310 310 310 310 310 312 313 312 312 312 313 312 312 312 312 312 311 311 311 309 309 309 309 308 307 307 308 307 305 305 305 306 305 303 302 301 301 301 301 300 300 299 298 297 297 296 296 296
314 313 312 311 312 312 312 312 312 311 311 312 311 311 311 311 311 312 312 312 312 311 311 310 310 310 310 310 310 310 311 312 312 312 312 312 312 311 311 311 311 311 311 311 310 309 308 308 308 308 307 307 307 306 305 304 305 305 305 304 302 301 301 301 301 300 299 299 298 298 297 297 297 297
313 313 312 311 312 312 311 311 311 311 311 311 311 311 311 311 312 312 312 312 312 311 310 310 310 310 310 310 310 310 311 312 312 312 312 311 311 311 310 310 311 311 310 310 309 308 308 308 308 308 307 307 306 306 305 304 304 305 304 303 302 301 301 301 301 300 300 299 299 298 297 297 297 297
313 313 312 312 312 312 311 311 311 311 311 311 311 311 311 311 312 312 312 312 312 311 310 310 310 310 310 310 310 311 312 312 312 312 311 310 309 309 308 309 309 310 309 308 308 308 308 308 308 308 308 307 306 306 305 305 304 304 304 303 302 301 301 301 301 300 300 299 299 299 298 297 297 297
312 312 312 312 312 311 310 310 310 310 310 311 311 311 311 312 312 312 313 312 312 311 310 310 309 309 310 310 311 312 312 313 312 311 310 309 309 307 307 308 309 309 308 307 307 308 309 308 308 307 307 307 306 305 305 304 303 303 304 303 302 301 302 302 301 301 300 300 300 298 297 296 297 297
312 312 312 312 311 310 310 310 310 310 311 311 312 312 312 312 312 312 312 312 312 311 310 309 309 309 309 310 311 312 312 312 311 309 308 308 308 306 305 306 307 307 307 307 308 309 309 308 307 306 306 306 305 304 303 302 301 302 303 303 302 302 303 302 301 301 300 300 300 298 296 294 294 295
310 310 311 311 310 310 310 310 310 310 311 311 311 311 312 312 312 312 312 312 311 310 309 309 308 308 309 310 310 311 312 311 310 307 306 306 305 304 303 303 304 305 306 308 309 309 308 307 306 306 305 305 305 304 302 301 301 302 302 303 302 302 303 303 303 302 301 300 300 299 298 296 296 296
309 309 310 310 310 310 310 310 310 311 311 311 311 311 311 312 312 312 312 312 311 310 309 308 308 308 309 309 310 311 311 310 309 308 307 305 304 303 303 303 303 303 304 306 307 307 306 306 306 305 305 305 305 304 303 302 301 301 301 302 302 302 303 303 302 301 300 300 300 299 298 298 298 297
310 310 310 311 312 312 311 311 312 312 311 311 311 311 312 313 313 312 312 312 311 310 309 308 308 308 308 309 310 311 310 310 309 308 307 306 305 304 303 303 303 303 304 305 306 306 306 305 305 305 304 304 304 303 303 302 301 301 300 300 301 301 302 302 301 300 299 298 299 299 298 298 298 297
Wind_Speed
6 6 6 7 8 9 11 13 12 8 8 8 8 9 8 5 3 2 3 3 4 9 14 13 14 18 19 18 17 15 13 12 11 12 14 17 19 20 21 21 22 23 24 25 26 27 28 30 32 33 33 34 34 33 33 34 34 33 33 34 33 33 33 32 32 32 31 30 28 27 26 26 26 26
4 6 6 8 9 9 10 13 14 11 9 9 9 9 10 10 6 3 3 3 4 8 13 13 14 18 18 17 17 16 15 14 14 14 15 15 16 17 19 21 21 22 24 25 25 25 28 31 32 33 33 34 33 33 33 34 34 34 34 34 34 34 33 33 35 35 33 32 31 29 28 28 27 27
3 5 5 7 8 9 11 12 13 14 11 9 10 10 11 12 11 6 4 3 5 11 13 14 15 17 17 17 15 14 15 15 15 16 16 15 13 13 15 19 20 22 24 24 23 24 28 31 32 32 32 32 32 33 34 33 33 33 33 33 33 34 34 34 37 35 32 32 32 32 31 30 29 29
4 3 3 5 6 7 10 11 12 12 11 10 11 11 12 12 12 11 5 3 7 13 14 14 16 16 16 16 13 14 14 15 16 16 15 15 13 12 14 16 18 20 22 23 23 25 27 29 30 31 31 32 33 33 33 33 32 32 33 33 33 34 34 34 36 35 34 33 32 32 32 31 31 31
4 5 4 4 3 5 8 10 10 9 9 11 14 13 13 12 11 12 9 5 6 11 13 14 15 15 15 15 13 14 15 15 16 16 14 15 15 14 16 17 17 19 20 20 22 24 24 25 27 29 30 32 32 32 32 33 32 32 33 33 33 34 35 35 35 36 36 34 32 33 33 32 32 32
6 6 6 5 3 4 7 9 8 7 8 11 13 13 12 12 11 11 11 8 6 10 14 16 15 15 16 16 14 14 15 15 16 15 13 14 15 16 17 18 18 19 19 18 17 20 21 22 24 27 30 31 31 30 31 32 32 33 34 34 33 34 34 35 35 35 35 34 32 33 33 33 33 34
7 7 6 5 4 4 6 8 8 6 7 10 11 11 11 10 10 10 11 11 8 9 14 16 17 17 17 17 16 14 14 15 14 14 13 13 13 15 16 17 18 19 20 18 16 17 18 19 21 24 26 28 30 31 32 33 33 34 34 33 33 34 34 35 35 35 35 35 33 33 35 34 33 33
7 8 7 5 4 4 6 8 9 7 6 9 10 10 10 9 9 10 12 12 10 9 11 15 16 16 16 17 15 14 15 15 13 13 12 11 11 12 13 15 16 17 17 17 17 17 18 19 19 20 21 23 26 29 31 32 32 33 34 33 33 34 35 35 36 35 35 36 35 34 36 36 34 33
6 7 8 7 5 5 6 7 9 8 7 9 10 9 10 9 8 10 11 12 12 11 12 13 15 15 15 15 14 14 16 16 14 12 11 10 10 11 11 12 13 14 14 14 15 15 16 18 19 18 19 20 21 23 25 26 28 31 33 34 34 34 35 35 35 35 35 36 36 36 36 36 35 35
6 5 6 7 7 6 7 8 8 7 8 10 10 9 10 10 9 10 11 12 12 13 14 13 14 15 16 16 14 14 15 15 13 14 13 11 11 12 12 13 12 12 12 12 12 12 13 15 16 16 16 17 18 19 20 21 24 26 29 30 32 33 33 32 31 32 32 33 33 34 36 38 38 36
7 6 5 6 7 8 9 9 8 8 8 8 8 8 10 9 8 9 10 11 11 13 14 14 14 14 15 15 15 15 14 13 12 14 15 15 15 14 14 14 13 12 11 11 11 11 11 12 13 13 14 14 16 17 19 20 22 23 23 25 26 28 28 27 26 27 28 29 30 31 33 36 39 40
6 7 6 6 8 9 11 12 11 9 7 6 6 8 8 6 6 7 8 9 10 11 12 13 14 14 15 16 16 16 14 13 12 13 13 14 15 16 15 13 12 13 13 11 11 11 11 11 11 12 12 12 13 14 16 19 21 22 22 23 22 22 21 22 23 24 25 27 29 30 30 31 34 37
6 8 8 8 9 9 10 11 10 7 5 5 7 7 6 6 6 7 8 9 9 10 11 12 13 14 14 16 16 16 14 12 12 13 12 11 13 16 18 14 11 11 13 13 12 12 12 11 11 11 12 13 12 12 14 16 19 21 22 21 20 19 19 20 22 24 25 25 26 27 28 29 29 30
6 7 10 10 7 5 5 6 6 6 6 7 8 7 7 7 7 7 8 9 10 10 11 12 12 12 13 15 15 15 13 12 13 14 13 12 13 16 18 17 14 11 13 17 17 13 12 11 11 11 12 13 13 12 12 13 14 15 16 16 17 17 18 19 21 22 23 23 23 24 25 26 27 28
7 6 9 10 8 6 6 7 8 9 10 10 10 9 9 9 8 7 8 9 10 12 13 13 13 12 13 15 15 15 14 13 14 14 12 12 14 14 13 13 14 14 16 20 21 17 13 11 11 11 11 12 11 10 10 9 8 10 11 12 13 14 16 17 17 17 18 19 21 22 23 24 25 27
8 7 7 10 12 12 10 10 11 12 13 14 12 12 11 10 9 8 8 9 11 13 15 16 16 15 16 16 15 15 14 14 14 14 12 12 14 14 12 12 16 18 19 21 21 19 15 11 10 10 10 9 9 7 7 6 7 8 10 11 13 15 15 14 14 15 16 17 18 19 20 21 22 24
8 7 6 8 12 14 12 12 13 15 16 17 16 14 13 12 10 9 9 9 11 14 16 18 18 17 16 17 16 15 14 15 15 15 14 13 13 15 15 17 21 22 20 19 20 19 16 11 9 9 8 7 6 6 6 6 6 7 9 11 13 14 13 13 14 15 15 14 15 16 17 19 21 22
8 7 7 9 11 12 12 12 13 15 17 19 19 18 16 14 12 11 11 11 12 14 16 17 19 17 16 18 19 16 14 15 15 15 15 15 15 16 17 19 22 21 17 16 14 13 13 11 9 9 8 6 6 6 5 6 6 6 8 9 10 11 11 12 13 14 14 14 15 16 18 19 20 22
10 7 8 11 12 12 13 13 14 16 17 19 21 20 18 16 14 13 12 12 13 14 14 16 17 16 15 17 19 17 14 13 13 15 17 16 17 18 19 20 20 18 14 13 9 8 10 10 8 8 8 7 8 7 6 6 6 6 7 7 8 9 10 12 13 14 15 16 17 18 19 20 21 22
12 9 10 12 13 13 13 13 15 17 18 19 21 21 19 17 15 14 13 13 13 13 13 14 15 15 15 15 15 14 13 12 13 15 18 19 18 17 16 17 18 17 14 12 10 10 11 10 7 8 8 8 7 7 6 6 5 5 6 7 8 9 10 12 13 14 15 16 18 19 20 21 22 22
15 13 11 12 13 13 13 14 15 16 17 18 20 21 19 17 16 15 13 13 12 11 12 13 14 15 16 16 15 13 13 13 14 14 16 18 16 13 10 10 13 16 15 13 12 13 13 11 8 6 6 6 5 5 5 5 5 5 7 8 9 11 12 13 13 14 14 15 16 18 19 20 21 21
18 16 13 12 14 14 13 14 14 13 13 16 19 20 18 16 17 16 14 13 12 11 12 14 15 15 15 16 17 17 17 17 16 16 17 18 16 13 11 10 12 16 15 11 9 10 11 11 9 6 4 4 5 5 5 5 6 7 8 10 11 13 14 14 14 14 15 16 16 17 18 19 20 21
20 19 17 14 14 14 14 13 12 10 10 13 17 18 17 17 17 15 13 12 13 13 14 16 17 18 17 17 17 19 20 21 21 21 21 21 18 17 17 15 11 8 7 5 6 7 7 8 9 7 5 2 4 7 7 6 7 8 10 11 12 13 13 13 13 14 14 15 15 15 15 15 16 17
22 21 19 17 15 14 14 13 11 10 10 12 15 16 17 17 16 14 13 13 14 15 17 18 19 20 18 16 14 15 17 20 21 23 23 23 22 20 20 19 12 7 7 7 8 10 8 7 9 11 9 4 2 4 6 7 7 8 10 11 11 11 12 13 13 14 14 14 13 12 11 10 11 12
25 23 22 20 17 16 15 14 13 12 11 12 14 16 16 16 15 14 15 15 15 17 19 19 20 20 18 15 12 11 11 12 14 17 19 21 21 21 21 21 17 14 13 11 10 10 8 7 9 11 11 7 3 3 5 5 6 8 9 9 10 11 12 13 14 14 14 13 12 11 9 9 8 9
27 25 23 22 19 17 17 16 15 14 13 13 15 17 16 16 15 16 17 17 17 19 21 21 21 21 19 17 13 11 10 10 11 11 12 14 15 16 19 21 19 16 14 11 10 10 9 8 9 10 11 10 5 4 4 3 5 7 8 8 9 11 12 12 12 12 12 11 10 9 8 7 7 7
30 27 25 24 21 19 19 19 18 16 15 16 18 18 17 17 17 18 19 19 19 20 21 22 23 22 20 18 15 12 11 11 10 9 10 11 12 14 18 20 18 16 14 13 12 12 11 11 11 11 13 12 7 4 4 5 6 7 8 8 8 9 10 10 9 8 8 7 6 6 5 5 5 5
32 30 27 26 23 21 21 21 20 18 18 19 20 19 18 19 19 20 21 22 21 21 22 23 25 24 21 18 16 14 13 11 10 9 9 10 12 12 14 15 16 15 15 14 14 14 14 14 13 12 12 12 10 6 5 7 8 8 8 6 6 6 6 6 5 4 4 3 2 2 3 4 4 5
33 32 30 28 25 22 22 22 21 21 21 22 22 21 20 21 22 23 24 24 22 22 23 24 25 25 22 17 15 14 14 13 11 9 8 10 10 10 11 13 14 16 15 14 13 13 13 13 12 10 10 11 13 11 8 7 8 9 8 5 3 2 3 3 2 1 1 2 3 4 5 6 7 8
35 34 32 30 27 24 23 23 23 23 23 23 24 23 23 24 25 26 27 26 23 23 24 25 25 24 21 17 14 14 13 12 10 8 9 10 11 11 12 13 15 16 16 13 12 11 11 12 10 9 10 12 15 15 13 10 9 9 9 6 4 2 1 0 0 1 3 5 6 7 8 9 9 10
35 36 34 30 27 25 24 24 24 25 25 25 26 26 26 26 27 28 28 27 25 24 24 24 23 22 20 18 16 14 14 14 13 11 11 12 13 12 13 15 16 17 17 15 13 12 12 12 11 10 11 12 13 14 14 12 10 10 10 8 6 5 4 3 4 6 7 9 10 10 11 11 12 12
32 34 32 28 25 24 25 25 26 27 28 28 29 30 29 28 27 28 28 26 24 24 24 23 22 22 21 19 17 15 15 16 15 12 12 13 14 14 14 14 15 17 18 17 15 13 12 12 11 10 10 11 12 12 12 11 11 11 12 10 7 6 6 7 8 10 10 11 11 12 13 13 13 14
25 27 27 26 26 26 26 27 28 29 30 30 31 30 29 28 27 27 26 25 25 25 24 23 23 22 21 19 17 15 16 18 17 15 13 13 14 14 15 15 16 17 18 17 14 12 11 11 10 9 10 11 12 13 12 11 10 11 13 12 10 9 9 10 11 12 11 11 12 13 14 14 13 14
19 21 22 23 26 27 27 27 29 30 29 29 29 29 28 27 26 25 26 26 26 26 25 24 24 23 22 20 18 17 18 19 19 17 15 14 14 14 15 16 17 17 17 16 14 11 9 8 7 5 6 8 9 11 12 11 11 14 14 13 13 14 13 12 12 12 11 12 12 13 14 14 13 13
17 19 20 22 24 25 25 27 29 29 28 27 27 28 27 26 25 26 27 27 27 26 26 25 24 23 23 22 20 18 19 20 19 18 16 14 15 15 15 16 16 16 15 15 14 11 8 7 6 5 6 6 6 6 7 9 13 17 16 14 15 16 15 13 12 12 13 14 14 14 14 15 15 15
19 20 21 22 24 23 23 26 28 28 27 27 27 26 26 26 27 28 27 27 26 26 26 25 24 24 24 24 22 20 20 20 20 20 18 16 16 16 16 16 15 13 13 15 16 13 10 9 10 9 7 5 3 3 3 6 13 18 19 18 18 18 17 15 13 13 14 14 15 15 15 15 16 17
20 21 22 24 25 24 24 26 27 26 26 27 27 26 27 28 29 28 26 25 26 26 26 25 24 24 25 24 23 21 21 21 22 22 20 17 17 17 16 15 14 12 12 15 16 15 12 12 13 11 7 4 2 2 3 6 13 17 19 20 21 20 19 18 16 15 14 14 15 17 18 18 18 18
22 23 22 24 25 26 26 27 26 26 26 26 26 27 28 28 28 27 25 25 25 25 25 25 25 25 25 24 23 23 22 22 22 22 20 18 17 17 17 15 13 12 13 15 16 15 13 14 15 14 10 5 3 3 4 7 11 15 18 20 23 23 21 20 19 17 16 16 17 17 19 20 19 18
25 25 25 25 26 26 26 26 26 26 26 27 27 27 27 27 26 25 24 24 24 23 24 25 25 25 25 25 24 23 23 22 21 21 19 17 16 16 16 14 13 13 14 15 16 15 15 17 18 17 15 10 8 9 11 12 13 15 18 20 23 26 24 22 21 20 18 18 19 19 19 18 17 16
27 28 28 28 28 28 27 27 26 26 26 26 26 26 26 26 25 25 25 24 23 22 23 24 24 23 24 24 24 23 23 23 22 20 18 17 17 16 16 15 14 14 15 16 16 17 19 21 22 21 18 13 10 10 14 16 15 16 20 21 22 25 25 22 22 22 20 18 19 20 19 17 16 15
28 29 29 29 29 29 28 27 27 26 26 25 25 25 25 25 25 25 25 25 23 21 22 22 22 21 22 22 23 24 24 22 21 19 17 17 18 17 16 16 15 15 15 16 17 20 21 22 21 19 17 13 10 9 11 10 10 14 20 22 23 24 23 21 21 23 23 22 22 20 18 15 15 15
29 29 29 28 27 26 26 26 26 26 26 26 26 25 25 25 26 25 25 24 23 21 22 22 21 21 21 22 23 24 23 21 19 17 17 19 19 17 14 14 14 14 16 18 20 22 21 18 17 17 15 14 14 12 9 8 11 16 20 22 23 24 22 20 20 22 24 25 26 24 19 15 12 12
28 27 27 25 23 22 23 24 24 26 27 28 28 27 26 25 25 25 24 23 22 21 22 22 21 21 22 23 24 24 23 21 20 19 18 19 20 18 16 14 14 16 19 22 23 21 17 15 16 18 17 16 17 15 13 14 17 19 21 22 23 23 21 18 18 19 21 23 24 24 22 18 12 9
28 27 25 22 18 16 17 19 21 24 26 28 29 29 27 25 25 24 22 21 21 21 20 20 20 21 22 24 25 25 23 22 21 20 19 19 20 20 18 16 15 17 21 23 20 17 15 15 17 20 20 19 19 18 17 18 20 20 22 23 23 22 20 18 17 18 21 22 22 20 20 19 12 4
29 27 22 15 11 12 16 19 21 23 25 26 28 28 27 26 25 23 21 20 20 20 19 18 18 20 22 24 26 26 24 22 21 20 19 19 20 20 18 17 15 16 20 22 19 16 15 16 19 21 20 19 18 18 19 21 22 22 22 22 21 22 21 20 19 21 22 23 24 23 21 19 13 4
Wind_Direction
8 355 0 3 357 355 355 359 356 332 322 333 340 349 353 347 321 298 325 321 299 335 347 343 339 342 344 344 342 330 310 304 302 291 282 277 272 266 260 255 252 250 248 244 240 238 236 235 234 232 231 231 232 232 231 231 232 232 233 233 232 232 232 234 233 230 231 233 235 237 236 234 235 238
4 349 350 354 357 0 353 353 358 347 326 327 341 352 352 351 343 287 289 303 287 319 334 336 336 337 337 336 338 341 335 320 305 297 295 290 282 272 263 259 257 254 252 249 246 243 240 237 234 232 232 234 235 234 233 233 233 234 234 233 234 235 234 238 239 232 229 232 235 237 237 236 236 236
337 334 338 341 344 354 350 348 357 355 342 340 357 5 1 3 3 341 294 272 302 315 321 329 334 334 333 332 330 336 344 340 323 309 305 302 296 285 271 263 261 260 258 256 254 249 243 240 237 234 234 234 236 236 236 236 235 234 235 236 237 238 237 240 243 240 234 233 235 237 237 238 239 238
319 313 323 333 333 343 345 346 355 0 4 11 16 13 6 9 15 7 347 266 302 320 324 328 331 330 329 330 331 332 335 340 337 325 314 305 297 291 282 272 266 263 261 259 257 254 249 245 242 239 238 236 236 237 237 238 238 236 237 239 240 241 241 240 243 243 240 236 235 236 237 238 239 240
291 299 298 304 323 334 332 339 355 7 14 15 14 14 9 9 17 12 359 325 306 325 336 339 336 337 337 334 338 341 336 335 336 331 323 309 296 288 286 284 282 275 268 262 258 258 256 251 246 243 242 241 239 238 237 237 238 238 240 242 242 242 243 243 242 242 242 240 236 236 238 238 238 240
275 300 303 294 301 323 320 327 347 0 3 4 6 11 11 7 8 10 2 349 323 320 335 344 345 349 350 344 345 351 347 340 334 331 329 318 304 294 290 290 291 289 283 277 266 259 258 253 248 244 243 243 243 241 239 239 239 240 241 242 243 244 245 246 245 244 246 245 240 238 240 240 239 240
276 291 299 300 299 303 314 321 328 339 345 351 356 0 4 3 360 1 0 356 342 322 328 339 344 347 350 350 353 356 352 345 337 334 334 325 312 306 303 298 294 293 292 290 280 271 266 259 252 249 246 245 244 243 242 240 239 240 242 243 244 245 248 249 249 248 249 249 245 241 241 242 242 242
279 282 277 281 295 297 308 316 316 316 323 334 344 349 351 356 358 356 353 352 348 334 328 333 339 342 345 349 355 356 351 349 346 341 334 325 317 314 314 311 303 297 295 294 290 282 276 270 264 261 258 255 253 252 250 246 243 242 244 245 245 246 249 250 251 249 248 248 246 243 242 242 243 243
276 275 265 267 282 291 295 302 306 308 309 319 332 342 341 343 353 356 352 350 347 343 336 333 338 345 346 348 354 358 353 349 351 347 336 329 327 322 319 320 316 309 303 300 297 288 281 278 276 273 270 268 268 267 263 256 251 248 248 248 248 249 250 251 252 251 250 250 249 246 245 245 244 242
267 259 262 272 277 280 281 282 289 295 301 311 319 331 337 337 346 353 352 348 343 341 339 335 338 344 348 348 348 353 351 347 351 353 343 338 339 334 327 327 328 325 318 312 307 302 296 289 283 279 276 273 273 273 269 262 257 254 253 254 254 253 253 253 253 253 254 255 255 253 250 250 249 246
264 251 262 271 272 277 278 278 281 278 282 301 310 322 335 340 344 349 349 344 337 336 335 333 334 338 343 343 339 341 345 342 349 357 347 339 342 342 338 337 338 337 333 326 318 312 309 305 298 289 283 278 272 269 267 263 260 258 257 256 254 253 254 255 256 256 256 258 259 258 255 253 251 250
271 249 251 256 268 280 279 281 286 277 270 289 305 314 324 327 329 335 338 334 329 327 326 324 327 330 332 333 333 337 343 343 347 355 347 334 336 337 335 337 342 343 343 340 333 326 321 318 313 306 300 292 280 271 266 262 259 257 257 254 249 246 248 252 254 255 256 257 258 259 259 258 256 254
295 252 244 253 270 283 281 282 282 263 256 282 290 296 301 298 307 318 323 321 319 316 313 313 320 323 323 324 327 330 335 338 338 342 339 330 331 332 328 328 334 339 340 336 333 335 336 331 324 316 307 297 290 284 276 267 261 256 254 251 247 245 248 251 253 254 254 255 257 257 259 261 260 259
316 262 243 250 263 274 279 281 267 248 264 285 281 277 282 289 296 304 310 315 315 307 298 299 307 308 306 312 315 314 317 317 316 324 330 325 326 332 330 326 327 333 337 333 326 324 331 332 324 313 303 296 294 292 284 277 269 258 247 239 238 242 252 260 261 260 256 254 256 257 258 259 259 260
320 281 249 244 243 252 270 278 273 266 268 274 275 272 272 280 288 293 299 306 309 302 290 288 292 287 288 299 306 306 305 302 302 313 320 315 317 328 330 321 317 321 331 331 322 313 315 321 317 307 300 297 296 293 286 279 267 253 238 230 236 247 260 268 269 263 256 253 254 255 256 257 257 258
312 298 268 243 238 249 265 276 283 281 270 266 270 272 270 272 275 279 286 294 301 300 291 286 284 281 283 290 297 302 302 298 299 306 308 304 305 312 311 302 301 309 322 324 316 308 307 310 307 300 296 294 292 288 285 275 256 248 243 242 249 254 259 265 266 261 256 252 252 254 255 256 257 257
301 299 277 244 238 248 262 274 282 282 275 268 266 266 266 266 267 273 281 290 300 299 292 286 285 285 286 286 291 299 299 294 295 297 298 301 302 301 300 297 298 306 317 316 307 302 303 305 300 291 285 283 279 271 268 264 254 253 254 252 250 248 247 250 252 253 253 253 254 257 258 259 260 260
291 285 258 241 241 252 268 278 280 281 277 269 262 260 260 261 265 271 280 295 305 300 292 290 291 293 291 286 290 298 296 287 285 288 292 298 301 300 300 300 301 306 314 311 299 292 300 308 295 274 265 258 255 251 247 249 250 255 258 256 252 249 249 251 251 249 248 249 254 260 262 262 261 259
276 271 248 243 248 259 271 278 283 289 287 273 259 254 255 259 264 269 280 298 307 300 291 290 293 296 297 291 287 288 286 280 279 285 289 290 293 298 300 301 302 305 311 310 293 274 293 307 290 261 253 240 236 237 235 239 246 251 260 265 265 267 268 267 266 262 255 251 254 259 262 263 263 262
266 263 251 246 251 261 269 278 289 296 292 276 257 248 251 257 261 269 284 298 303 299 293 291 290 291 295 296 290 280 273 273 281 288 288 285 286 290 294 296 298 303 309 306 292 281 292 300 282 254 245 234 229 233 235 242 253 260 270 280 283 287 289 286 281 276 268 262 259 259 261 262 262 261
261 259 253 247 251 259 267 281 294 296 286 270 251 244 249 255 260 273 291 298 298 301 299 298 297 293 289 289 287 280 271 271 280 285 283 283 285 283 282 285 290 297 303 303 293 286 288 289 275 244 233 230 229 235 240 247 264 279 286 293 296 299 299 296 291 286 281 275 271 267 266 264 263 262
257 258 255 248 249 257 268 283 292 290 276 259 245 242 247 252 261 280 296 298 300 304 302 302 305 303 298 291 284 279 273 270 274 277 277 282 283 273 262 263 276 290 299 305 296 277 270 274 266 230 207 225 236 241 250 258 272 285 292 296 298 298 297 295 294 292 290 286 282 277 271 266 264 262
255 257 255 249 247 254 265 276 278 270 257 248 243 243 246 252 267 287 298 298 302 306 303 304 306 307 309 304 290 279 271 267 268 271 275 280 278 266 258 257 265 286 299 307 312 300 287 281 266 234 205 215 236 237 246 260 274 283 287 289 292 292 294 297 297 295 295 292 289 285 280 272 265 261
254 256 256 252 247 248 255 259 259 254 248 243 241 241 244 256 275 294 299 297 301 300 299 305 308 309 312 309 299 287 273 263 262 264 268 271 271 266 260 255 247 247 257 269 294 306 307 298 276 252 236 237 236 217 226 246 263 276 285 289 294 300 302 305 306 304 303 300 297 294 289 280 268 260
253 256 258 255 249 245 245 247 250 253 249 240 237 241 251 268 284 293 295 297 299 296 296 302 306 309 312 312 311 310 295 277 270 267 264 262 265 266 260 251 242 246 259 268 278 290 294 294 289 270 248 246 260 208 201 226 251 266 283 290 297 304 308 310 312 309 307 304 301 298 290 280 270 258
252 257 260 259 253 246 244 245 249 252 246 238 240 249 264 278 285 286 289 293 294 295 297 299 300 304 309 311 316 325 321 305 292 285 275 265 265 265 258 250 247 252 264 273 276 283 290 289 289 276 250 239 240 220 194 200 237 254 267 278 288 299 306 311 311 307 304 303 301 297 287 275 265 252
254 259 261 261 256 250 247 247 249 248 244 241 246 256 270 279 281 282 285 286 288 292 294 293 293 297 304 309 314 319 322 314 301 296 294 278 267 264 257 250 248 254 266 273 275 279 284 281 283 279 255 230 208 194 202 209 229 243 251 265 285 299 307 311 308 301 300 300 297 294 279 257 247 236
257 260 263 262 258 253 250 250 250 249 246 246 252 261 270 277 279 280 282 284 285 287 287 286 288 292 297 305 311 313 313 309 297 294 296 283 269 263 255 243 242 251 260 267 272 277 278 272 274 282 267 231 207 206 212 214 227 235 239 257 287 303 309 311 300 287 289 283 251 228 213 195 189 195
258 260 262 262 259 255 253 252 250 249 249 251 256 262 269 275 279 281 283 284 282 279 279 281 283 287 292 301 310 311 305 297 286 281 286 283 272 259 245 236 242 250 254 261 271 274 273 267 265 276 276 250 234 233 224 210 217 222 224 233 260 304 321 320 295 245 204 179 161 153 154 152 152 159
256 257 258 258 256 253 251 250 249 250 252 254 257 261 266 272 278 282 283 282 278 275 277 279 280 282 288 295 301 301 295 285 276 268 272 276 271 259 246 239 242 245 247 256 266 264 263 267 267 270 273 260 246 239 233 220 206 203 209 207 180 142 127 154 127 131 141 138 130 127 127 130 135 142
255 254 254 254 254 251 249 249 250 252 253 254 256 261 266 272 277 281 283 281 278 276 276 277 278 279 282 286 290 289 284 277 271 265 262 264 264 259 250 242 241 242 245 253 259 253 249 255 261 267 268 253 238 232 231 224 209 195 191 187 170 152 154 153 127 120 123 120 115 115 116 117 123 128
257 252 249 249 249 247 246 246 248 250 251 254 258 262 268 272 276 279 280 277 276 276 275 274 273 272 272 277 283 286 281 274 267 260 254 255 259 259 250 242 243 245 245 248 253 255 254 256 258 262 260 249 239 231 219 211 210 199 180 169 163 153 147 141 127 122 121 115 110 111 111 113 120 127
259 251 246 245 244 243 243 244 247 250 253 256 260 263 267 271 274 275 274 273 274 276 274 270 268 265 264 268 275 279 276 270 262 254 251 253 257 255 246 242 249 254 252 250 253 258 264 267 264 255 247 244 244 234 215 197 193 187 174 165 155 142 138 138 131 125 121 114 108 104 104 108 117 125
251 247 243 242 242 240 240 243 246 250 253 255 259 263 266 269 270 269 269 272 275 276 272 269 266 262 259 260 265 269 270 268 260 251 247 248 251 249 243 241 249 256 258 258 259 262 264 264 260 244 226 220 216 215 214 203 180 168 167 164 154 142 137 137 133 126 122 118 111 100 96 102 111 121
242 240 238 240 242 241 240 242 246 249 252 254 257 261 265 266 265 263 265 272 276 274 270 267 263 258 254 254 257 261 264 264 259 252 246 244 247 249 244 241 247 255 256 254 255 258 255 242 218 176 159 165 166 174 206 209 183 165 158 157 154 147 142 140 139 133 127 123 117 107 98 99 108 118
241 240 238 240 244 243 241 245 249 251 252 254 256 258 260 261 262 263 266 272 275 273 268 262 256 253 250 248 250 256 260 258 255 253 249 244 243 246 244 242 247 252 249 247 249 250 241 225 208 182 154 145 147 137 147 188 186 175 162 153 152 150 146 143 140 135 129 125 122 117 109 106 112 121
240 240 239 241 246 247 247 250 253 254 254 256 257 257 257 260 264 268 270 272 272 269 264 256 250 249 247 244 245 251 255 252 249 248 248 245 242 242 244 245 245 243 242 243 245 241 231 220 210 196 176 153 155 157 141 163 179 182 172 160 155 153 151 146 136 129 128 126 124 124 123 121 123 127
242 243 241 242 246 249 250 253 255 255 257 259 259 259 259 262 266 270 270 270 268 265 257 249 246 246 245 242 242 246 249 249 246 243 244 246 243 240 240 240 238 239 241 239 236 234 231 225 216 206 194 175 162 177 169 158 167 177 179 172 162 156 154 148 137 131 132 131 129 131 133 133 133 136
243 245 245 247 251 253 254 256 257 258 261 262 261 261 263 264 267 268 267 266 265 260 251 245 243 243 242 240 239 242 245 244 240 237 238 238 234 234 236 237 235 232 229 227 228 229 228 226 223 217 208 200 199 198 185 171 164 169 176 177 169 162 159 154 144 141 142 141 139 138 137 136 139 143
242 245 247 250 255 257 259 262 263 264 266 267 267 266 267 267 268 268 266 264 260 253 246 242 239 239 239 237 236 238 240 239 238 238 235 227 220 222 231 239 237 225 215 215 220 224 226 230 230 225 218 216 221 208 183 167 159 162 170 175 174 168 165 163 157 153 153 152 150 147 144 145 149 154
242 244 248 251 255 258 261 264 267 267 268 270 272 272 271 269 267 266 265 263 257 248 241 238 234 233 232 231 230 231 234 236 238 235 227 219 216 221 231 237 231 218 209 210 217 224 233 239 236 227 222 218 205 180 162 153 153 161 168 173 175 172 172 175 173 166 163 163 162 154 148 152 158 161
244 246 250 254 256 260 264 267 269 269 269 270 272 273 272 270 266 263 261 259 254 245 238 233 230 229 228 227 228 229 230 233 233 226 218 215 217 222 227 226 220 215 215 220 226 232 240 243 233 220 216 208 190 174 164 165 167 165 167 173 177 176 176 181 183 179 174 173 171 164 155 153 157 165
245 245 248 252 258 264 269 272 272 271 272 272 272 271 271 268 264 260 258 255 248 239 233 230 229 229 228 227 227 228 229 229 226 217 212 213 216 218 221 223 224 227 230 234 236 236 236 232 221 210 202 198 195 190 181 175 173 169 169 174 178 180 180 180 186 193 193 189 185 181 174 168 162 175
243 242 245 251 258 268 275 279 279 276 273 271 269 268 267 265 262 259 256 250 242 235 232 232 234 235 234 230 227 226 226 227 224 218 215 216 216 218 225 233 236 235 235 236 234 228 223 218 211 204 199 198 199 196 186 178 176 174 174 175 178 181 183 180 182 190 197 199 199 200 196 187 173 168
245 242 242 244 256 278 288 292 293 287 276 268 267 266 262 259 258 256 248 239 235 234 235 238 242 244 240 233 228 225 224 224 223 221 220 218 217 219 227 238 241 236 232 228 221 212 208 205 201 201 201 199 200 202 196 186 180 177 175 175 177 179 182 185 185 187 192 197 202 207 209 204 200 224